sat.trackr.live / text

‹ back to catalog

WSF-M

NORAD 59481 · 2024-070A

PAYLOAD ACTIVE UNKNOWN

§ Identity

Operator
Country
US
Launch date
2024-04-11
Launch site
AFWTR
Launch vehicle
Mass (kg)
RCS (m²)

External: N2YO · Heavens-Above · Gunter

§ Orbital elements

Epoch: 2026-09-22T14:56:10.226112Z

Period
101.35 min
Inclination
98.7204°
Eccentricity
0.0005593
Mean motion
14.20750678 rev/d
Perigee alt
818.8 km
Apogee alt
826.8 km
Semi-major
7,201.0 km
B*
3.3037e-5
RAAN
272.2616°
Arg perigee
50.8579°
Mean anomaly
309.3094°
Rev number
12,693

§ Raw data

WSF-M1 59481U 24070A   26265.62234058  .00000027  00000+0  33037-4 0  99992 59481  98.7204 272.2616 0005593  50.8579 309.3094 14.20750678126930

JSON: /api/v1/satellites/59481 · /tle

For live sub-satellite position, see the globe view (requires WebGL).

§ Visibility from observer

Set your observer location to see the next 7 days of passes ≥ 10°. The values pass through the URL so the page stays shareable.

No JS? Fill the form by hand. The geolocation button needs JavaScript.

§ Radio — SatNOGS DB

ModeDescriptionDownlinkUplink
BPSK Mode S - Payload 2.253 GHz
BPSK Mode S - TTC 2.238 GHz

2 transmitters · refreshed weekly from db.satnogs.org